Regional Weather Roundup
Issued by NWS

Home | Current Version | Previous Version | Graphics & Text | Print | Product List | Glossary On
Versions: 1 2 3 4 5 6 7 8 9 10 11 12 13 14 15 16 17 18 19 20 21 22 23 24 25 26 27 28 29 30 31 32 33 34 35 36 37 38 39 40 41 42 43 44 45 46 47 48 49 50
000
ASUS43 KLMK 240710
RWRKY
KENTUCKY REGIONAL WEATHER ROUNDUP
NATIONAL WEATHER SERVICE LOUISVILLE KY
300 AM EDT SUN MAY 24 2015

NOTE "FAIR" INDICATES FEW OR NO CLOUDS BELOW 12,000 FEET
WITH NO SIGNIFICANT WEATHER AND/OR OBSTRUCTIONS TO VISIBILITY.

KYZ001>023-026-027-061>063-070>075-240800-
WESTERN AND SOUTH CENTRAL KENTUCKY

CITY           SKY/WX    TMP DP  RH WIND       PRES   REMARKS
PADUCAH        CLEAR     63  55  75 SE5       30.14S
HENDERSON      CLEAR     63  52  67 CALM      30.17S
OWENSBORO      CLEAR     64  52  65 SE5       30.19F
HOPKINSVILLE   CLEAR     66  56  72 SE3       30.18F
BOWLING GREEN  MOCLDY    60  55  83 CALM      30.21F
GLASGOW        CLEAR     65  52  61 CALM      30.23S
$$

KYZ024-025-028>034-038-045-046-053-240800-
NORTH CENTRAL KENTUCKY

CITY           SKY/WX    TMP DP  RH WIND       PRES   REMARKS
LOUISVILLE/SDF CLOUDY    65  52  62 CALM      30.23S
LOUISVILLE/LOU MOCLDY    67  50  54 SE3       30.23F
FORT KNOX      CLOUDY    61  52  73 E5        30.21F
$$

KYZ035>037-039>044-047>052-055>060-089>105-240800-
NORTHEAST KENTUCKY

CITY           SKY/WX    TMP DP  RH WIND       PRES   REMARKS
LEXINGTON      PTCLDY    63  49  60 SE8       30.27F
COVINGTON      CLEAR     63  47  55 SE8       30.27S
FRANKFORT      CLEAR     61  49  64 SE5       30.25F
$$

KYZ054-064>069-076>088-106>120-240800-
SOUTHEAST KENTUCKY

CITY           SKY/WX    TMP DP  RH WIND       PRES   REMARKS
JACKSON        MOCLDY    62  49  62 SE3       30.30F
LONDON         PTCLDY    57  51  80 CALM      30.29S
SOMERSET       PTCLDY    54  54 100 CALM      30.30S
MIDDLESBORO    CLEAR     54  53  95 CALM      30.32F
MONTICELLO     PTSUNNY   58  53  83 CALM      30.30F
$$




USA.gov is the U.S. government's official web portal to all federal, state and local government web resources and services.